Weather reports worldwide

Advertisment
Cannes, France (7684): temperature & dewpoint: 13.12.2018 05:00:00 - 19.12.2018 05:00:00 (CET)Cannes, France (7684): temperature 5cm: 13.12.2018 05:00:00 - 19.12.2018 05:00:00 (CET)Cannes, France (7684): wind speed & gusts: 13.12.2018 05:00:00 - 19.12.2018 05:00:00 (CET)Cannes, France (7684): wind direction: 13.12.2018 05:00:00 - 19.12.2018 05:00:00 (CET)Cannes, France (7684): reduced air pressure: 13.12.2018 05:00:00 - 19.12.2018 05:00:00 (CET)Cannes, France (7684): visibility: 13.12.2018 05:00:00 - 19.12.2018 05:00:00 (CET)Cannes, France (7684): precipitation: 13.12.2018 05:00:00 - 19.12.2018 05:00:00 (CET)
Date & Time tt [°C] td [°C] tt 5cm [°C] ff [km/h] ff [kn] fx [km/h] fx [kn] dd ppp [hPa] vv [km] rr [mm]
19.12.2018 05:00:00 8,2 7,3 7,9 2 1 9 5 NE 1022,9 15 0,4
19.12.2018 04:00:00 8,2 6,7 7,6 6 3 12 6 N 1023,2 16 0,0
19.12.2018 03:00:00 8,1 6,4 7,5 5 3 12 7 N 1023,8 26 0,0
19.12.2018 02:00:00 7,9 6,5 6,8 6 4 17 9 NNE 1024,1 11 0,0
19.12.2018 01:00:00 7,6 6,1 6,7 9 5 14 8 N 1024,4 12 0,0
19.12.2018 00:00:00 7,6 6,4 6,4 4 2 14 8 NNW 1025,2 15 0,0
18.12.2018 23:00:00 7,3 5,9 6,4 6 3 13 7 N 1025,3 19 0,0
18.12.2018 22:00:00 8,0 6,5 7,3 8 4 13 7 N 1025,6 20 0,0
18.12.2018 21:00:00 8,2 6,7 7,6 9 5 15 8 NNE 1025,8 15 0,0
18.12.2018 20:00:00 8,8 7,2 8,2 8 4 14 8 NNE 1025,9 8 0,0
18.12.2018 19:00:00 9,5 7,8 8,9 7 4 14 7 NNE 1025,6 3,4 0,0
18.12.2018 18:00:00 10,1 8,2 9,6 6 3 13 7 NNE 1025,8 10 0,0
18.12.2018 17:00:00 11,4 8,4 8,9 6 3 9 5 N 1025,4 19 0,0
18.12.2018 16:00:00 13,3 7,7 11,5 4 2 14 8 SSE 1025,4 60 0,0
18.12.2018 15:00:00 14,1 8,7 14,0 7 4 13 7 S 1025,5 60 0,0
18.12.2018 14:00:00 14,4 8,1 13,6 5 3 16 8 SSE 1025,7 60 0,0
18.12.2018 13:00:00 14,7 7,3 15,2 6 4 12 7 SE 1026,3 60 0,0
18.12.2018 12:00:00 14,7 8,0 11,9 0 0 10 5 N 1027,4 19 0,0
18.12.2018 11:00:00 11,4 6,1 8,0 6 3 16 8 N 1028,0 20 0,0
18.12.2018 10:00:00 8,0 4,6 4,4 10 5 18 10 N 1028,0 20 0,0
18.12.2018 09:00:00 5,1 3,3 2,7 9 5 17 9 N 1027,5 29 0,0
18.12.2018 08:00:00 3,7 2,5 2,6 8 4 18 10 N 1027,2 47 0,0
18.12.2018 07:00:00 3,6 2,4 2,6 9 5 16 8 N 1026,7 47 0,0
18.12.2018 06:00:00 3,8 2,6 2,9 10 5 20 11 N 1026,3 44 0,0
18.12.2018 05:00:00 3,8 2,6 2,8 9 5 15 8 N 1026,4 43 0,0
18.12.2018 04:00:00 4,2 2,9 3,3 9 5 19 10 N 1026,8 40 0,0
18.12.2018 03:00:00 4,6 3,3 3,5 9 5 18 10 N 1026,8 40 0,0
18.12.2018 02:00:00 4,7 3,4 3,7 7 4 13 7 N 1026,3 38 0,0
18.12.2018 01:00:00 5,0 3,8 3,7 8 4 16 9 N 1025,9 26 0,0
18.12.2018 00:00:00 5,7 4,3 4,7 10 5 16 9 N 1026,1 29 0,2
17.12.2018 23:00:00 6,1 4,9 4,8 9 5 15 8 N 1026,2 29 0,0
17.12.2018 22:00:00 6,3 5,4 4,9 7 4 15 8 N 1025,5 21 0,0
17.12.2018 21:00:00 6,7 5,8 5,5 6 4 18 10 N 1025,2 17 0,0
17.12.2018 20:00:00 7,4 6,2 5,5 6 3 12 7 N 1024,7 15 0,0
17.12.2018 19:00:00 8,3 6,9 6,7 5 3 14 7 NNE 1024,0 20 0,0
17.12.2018 18:00:00 9,0 7,3 7,3 8 4 12 7 NNE 1023,0 17 0,0
17.12.2018 17:00:00 10,8 6,9 8,3 4 2 9 5 N 1022,1 58 0,0
17.12.2018 16:00:00 14,0 6,8 11,7 4 2 13 7 ESE 1021,2 57 0,0
17.12.2018 15:00:00 14,3 6,6 13,4 7 4 14 8 S 1019,5 60 0,0
17.12.2018 14:00:00 14,4 7,2 12,7 8 5 14 8 S 1018,7 60 0,0
17.12.2018 13:00:00 14,2 7,9 13,7 8 5 13 7 SW 1018,8 60 0,0
17.12.2018 12:00:00 13,6 9,2 13,4 5 3 11 6 SW 1018,8 60 0,0
17.12.2018 11:00:00 13,3 9,4 9,6 3 1 5 3 SSW 1019,1 19 0,0
17.12.2018 10:00:00 10,2 9,0 8,3 2 1 13 7 NNW 1018,6 31 0,0
17.12.2018 09:00:00 8,9 8,0 8,2 5 3 11 6 NNE 1017,2 20 0,0
17.12.2018 08:00:00 8,9 8,1 8,5 6 4 11 6 NNE 1016,1 18 0,0
17.12.2018 07:00:00 8,8 8,2 8,3 4 2 11 6 N 1015,1 19 0,0
17.12.2018 06:00:00 8,7 7,9 8,1 6 4 14 8 N 1014,2 20 0,0
17.12.2018 05:00:00 8,5 7,7 7,2 8 4 15 8 NNE 1013,8 20 0,0
17.12.2018 04:00:00 8,0 7,4 5,9 10 6 16 9 N 1013,5 20 0,0
17.12.2018 03:00:00 7,1 6,8 5,9 3 2 10 6 N 1013,5 9 0,0
17.12.2018 02:00:00 7,4 7,0 6,2 4 2 11 6 NW 1013,4 7 0,0
17.12.2018 01:00:00 8,1 7,8 7,7 3 2 9 5 ENE 1013,9 5 0,0
17.12.2018 00:00:00 8,3 7,9 7,4 5 3 9 5 N 1013,7 6 0,0
16.12.2018 23:00:00 8,5 8,1 8,0 2 1 6 3 NNW 1014,2 4,3 0,0
16.12.2018 22:00:00 8,9 8,3 8,5 2 1 6 3 E 1014,1 8 0,0
16.12.2018 21:00:00 8,9 8,3 8,4 4 2 12 7 NNE 1014,0 8 0,0
16.12.2018 20:00:00 8,6 8,2 8,3 7 4 11 6 NW 1013,4 6 0,2
16.12.2018 19:00:00 8,6 8,0 8,4 3 2 6 3 N 1013,7 4,6 0,4
16.12.2018 18:00:00 8,6 8,0 8,4 3 2 7 4 N 1013,7 6 0,2
16.12.2018 17:00:00 8,8 8,2 8,5 3 2 6 3 NNE 1013,8 4,6 0,2
16.12.2018 16:00:00 9,0 8,2 8,8 2 1 6 4 NNE 1014,6 6 0,2
16.12.2018 15:00:00 9,1 7,7 8,9 0 0 8 5 N 1014,4 14 0,0
16.12.2018 14:00:00 8,7 7,9 8,4 5 3 11 6 N 1015,5 9 0,4
16.12.2018 13:00:00 8,3 7,4 8,1 5 3 13 7 NNE 1016,4 6 1,6
16.12.2018 12:00:00 8,9 6,5 8,6 6 3 13 7 NNE 1017,1 17 0,0
16.12.2018 11:00:00 8,8 5,9 7,6 6 4 12 6 N 1017,6 26 0,0
16.12.2018 10:00:00 7,4 5,5 6,5 7 4 15 8 NNE 1017,6 31 0,0
16.12.2018 09:00:00 6,4 5,0 4,6 4 2 10 5 NNE 1016,9 30 0,0
16.12.2018 08:00:00 5,5 4,1 4,6 5 3 12 6 N 1016,8 28 0,0
16.12.2018 07:00:00 6,0 4,6 5,6 4 2 7 4 N 1017,4 20 0,2
16.12.2018 06:00:00 6,5 4,0 5,8 5 3 10 5 N 1017,3 27 0,0
16.12.2018 05:00:00 6,5 3,8 5,8 5 3 9 5 N 1017,6 28 0,0
16.12.2018 04:00:00 6,4 4,2 5,7 5 3 11 6 N 1018,0 19 0,0
16.12.2018 03:00:00 6,6 4,1 5,5 5 3 10 5 NE 1018,0 18 0,0
16.12.2018 02:00:00 6,0 4,0 4,7 3 2 6 4 NNE 1018,2 18 0,0
16.12.2018 01:00:00 6,0 3,5 4,4 4 2 8 4 N 1018,7 19 0,0
16.12.2018 00:00:00 6,8 3,6 5,5 4 2 11 6 NNE 1019,0 18 0,0
15.12.2018 23:00:00 6,7 3,8 5,8 5 3 11 6 N 1019,5 18 0,0
15.12.2018 22:00:00 6,2 3,7 5,1 6 3 15 8 N 1019,6 17 0,0
15.12.2018 21:00:00 6,1 3,8 4,1 9 5 15 8 NNE 1019,5 17 0,0
15.12.2018 20:00:00 6,1 3,8 4,2 5 3 9 5 N 1019,8 16 0,0
15.12.2018 19:00:00 7,1 4,1 5,7 5 3 9 5 N 1019,6 14 0,0
15.12.2018 18:00:00 8,2 3,8 5,3 4 2 6 4 NW 1019,2 17 0,0
15.12.2018 17:00:00 9,9 3,4 7,8 4 2 15 8 SW 1019,5 13 0,0
15.12.2018 16:00:00 10,9 3,2 10,1 11 6 18 10 W 1019,3 60 0,0
15.12.2018 15:00:00 10,9 3,9 10,0 11 6 18 10 S 1018,6 55 0,0
15.12.2018 14:00:00 10,9 4,6 10,5 11 6 22 12 S 1018,4 60 0,0
15.12.2018 13:00:00 12,3 5,2 13,3 16 9 22 12 S 1018,7 60 0,0
15.12.2018 12:00:00 13,0 4,2 9,1 3 1 8 4 S 1019,1 20 0,0
15.12.2018 11:00:00 9,5 3,5 8,3 5 3 15 8 NNE 1019,6 17 0,0
15.12.2018 10:00:00 7,0 3,1 4,8 8 4 15 8 N 1019,1 19 0,0
15.12.2018 09:00:00 5,3 2,3 3,4 9 5 16 9 N 1019,0 18 0,0
15.12.2018 08:00:00 4,4 1,8 3,5 8 5 15 8 N 1018,2 23 0,0
15.12.2018 07:00:00 4,4 1,8 3,3 7 4 16 8 N 1017,7 24 0,0
15.12.2018 06:00:00 4,7 1,7 3,7 8 4 16 9 N 1017,1 26 0,0
15.12.2018 05:00:00 5,0 1,7 3,8 8 4 15 8 N 1016,8 27 0,0
15.12.2018 04:00:00 5,3 2,1 3,5 6 3 11 6 N 1016,6 28 0,0
15.12.2018 03:00:00 5,2 2,5 3,9 3 2 13 7 N 1016,8 24 0,0
15.12.2018 02:00:00 5,2 2,7 3,6 5 3 11 6 N 1016,5 21 0,0
15.12.2018 01:00:00 5,2 2,5 2,9 5 3 12 7 N 1016,0 20 0,0
15.12.2018 00:00:00 4,9 2,4 2,4 5 3 8 5 N 1015,8 20 0,0
14.12.2018 23:00:00 5,4 2,6 3,2 4 2 10 5 N 1015,9 22 0,0
14.12.2018 22:00:00 6,0 2,8 4,2 5 3 12 6 N 1015,4 26 0,0
14.12.2018 21:00:00 6,8 3,0 3,3 6 3 9 5 N 1015,1 26 0,0
14.12.2018 20:00:00 8,0 3,3 4,2 0 0 7 4 N 1014,6 27 0,0
14.12.2018 19:00:00 9,7 3,9 6,7 2 1 8 4 NNW 1014,1 58 0,0
14.12.2018 18:00:00 10,0 3,7 7,9 4 2 10 6 SW 1013,4 60 0,0
14.12.2018 17:00:00 10,4 4,5 9,1 5 3 13 7 SSW 1013,1 60 0,0
14.12.2018 16:00:00 12,0 4,5 11,4 5 3 18 10 WSW 1012,8 60 0,0
14.12.2018 15:00:00 12,9 4,3 12,9 9 5 22 12 WSW 1012,2 60 0,0
14.12.2018 14:00:00 12,3 4,8 11,3 13 7 28 15 W 1012,1 47 0,0
14.12.2018 13:00:00 12,4 4,4 10,6 13 7 23 12 W 1012,4 49 0,0
14.12.2018 12:00:00 11,3 3,1 8,2 6 3 13 7 SW 1012,9 35 0,0
14.12.2018 11:00:00 8,4 2,0 7,1 4 2 13 7 N 1012,9 20 0,0
14.12.2018 10:00:00 6,6 1,1 2,3 7 4 14 7 NNE 1012,4 9 0,0
14.12.2018 09:00:00 4,9 0,3 2,1 2 1 5 3 N 1011,8 20 0,0
14.12.2018 08:00:00 5,5 0,5 3,1 4 2 8 4 NNE 1010,9 45 0,0
14.12.2018 07:00:00 5,6 0,9 3,6 3 1 9 5 N 1010,5 60 0,0
14.12.2018 06:00:00 5,5 1,0 4,0 4 2 12 6 N 1010,1 60 0,0
14.12.2018 05:00:00 5,8 1,1 4,5 6 3 10 6 NNE 1010,0 55 0,0
14.12.2018 04:00:00 6,0 1,3 4,7 5 3 11 6 N 1010,2 55 0,0
14.12.2018 03:00:00 6,1 1,6 5,2 6 4 13 7 N 1010,5 40 0,0
14.12.2018 02:00:00 6,5 1,8 5,7 8 5 12 7 NNE 1010,1 28 0,0
14.12.2018 01:00:00 7,0 1,9 5,8 6 3 12 7 N 1010,1 17 0,0
14.12.2018 00:00:00 7,9 1,1 6,1 6 3 9 5 N 1010,5 20 0,0
13.12.2018 23:00:00 8,1 1,0 6,5 5 3 9 5 NNE 1010,3 20 0,0
13.12.2018 22:00:00 8,7 0,2 6,9 5 3 9 5 NNE 1010,3 20 0,0
13.12.2018 21:00:00 9,5 -1,3 7,4 4 2 14 8 NNE 1010,0 42 0,0
13.12.2018 20:00:00 9,3 0,5 7,7 7 4 18 10 N 1009,9 29 0,0
13.12.2018 19:00:00 9,5 1,1 7,4 4 2 18 10 NNE 1009,7 28 0,0
13.12.2018 18:00:00 9,4 2,5 7,5 6 4 16 9 NE 1009,7 10 0,0
13.12.2018 17:00:00 9,7 2,3 8,1 5 3 34 18 NE 1009,9 14 0,0
13.12.2018 16:00:00 10,7 -0,2 9,2 14 7 34 18 ESE 1010,0 60 0,0
13.12.2018 15:00:00 10,6 0,6 9,0 13 7 30 16 ESE 1010,0 60 0,0
13.12.2018 14:00:00 10,6 0,6 9,5 14 7 27 15 ESE 1010,5 60 0,0
13.12.2018 13:00:00 10,6 1,7 9,2 9 5 24 13 E 1010,9 47 0,0
13.12.2018 12:00:00 10,3 1,1 8,1 11 6 23 13 E 1011,8 59 0,0
13.12.2018 11:00:00 9,8 1,9 7,9 5 3 18 10 E 1012,6 59 0,0
13.12.2018 10:00:00 9,1 3,3 7,5 7 4 15 8 NNE 1012,4 36 0,0
13.12.2018 09:00:00 8,7 3,5 7,4 7 4 16 9 N 1013,1 47 0,0
13.12.2018 08:00:00 8,8 3,4 7,2 9 5 16 9 N 1013,2 53 0,0
13.12.2018 07:00:00 7,9 5,2 7,1 7 4 12 6 NNE 1013,0 35 0,0
13.12.2018 06:00:00 8,2 5,1 7,1 6 4 12 7 N 1013,1 31 0,0
13.12.2018 05:00:00 8,0 5,6 7,2 4 2 10 5 NNE 1013,3 21 0,2

tt = temperature
td = dewpoint
tt 5cm = temperature 5cm
ff = wind speed
fx = gusts
dd = wind direction
ppp = reduced air pressure
vv = visibility
rr = precipitation

Next stations